www.pogodaiklimat.ru

Погода и климат >> Архив погоды >> Мозамбик >> Мапуту


ПОГОДА в Мапуту

  • Прогноз погоды в Мапуту
  • Монитор погоды в Мапуту

АРХИВ ПОГОДЫ в Мапуту

Время (UTC), дата Ветер
(напр.,м/с)
 
Видим.   Явления Облачность Т
(С)
Тd
(С)
f
(%)
Тe
(С)
Тes
(С)
Комфортность P
(гПа)
Po
(гПа)
Тmin
(С)
Tmax
(С)
R
(мм)
R24
(мм)
S
(см)
06 8.09 З 2 20 км 6/6 600 м
[Cu med, cong]
+17.5 +14.2 81 +18 +20 1034.2 1028.9 +14.1
09 8.09 Ю 3 20 км 6/6 600 м
[Cu med, cong]
+21.7 +11.6 53 +24 +30 комфорт 1032.8 1027.5
12 8.09 СВ 6 20 км 5/3 600 м
[Sc]
+24.6 +9.1 37 +25 +28 комфорт 1029.5 1024.3
15 8.09 СВ 5 20 км ясно +21.8 +11.4 52 +24 +24 комфорт 1028.3 1023.1
18 8.09 СВ 3 20 км 1/1 600 м
[Sc]
+17.7 +12.4 71 +18 +18 1028.3 1023.0 +25.5
21 8.09 СВ 2 20 км 4/4 600 м
[Sc]
+15.1 +11.4 79 +15 +15 1027.7 1022.4
00 9.09 ЮЗ 2 20 км 1/1 600 м
[Sc]
+14.5 +12.2 86 +14 +14 1026.2 1020.8
03 9.09 Ю 2 20 км 1/1 600 м
[Sc]
+13.1 +11.4 89 +12 +12 1025.5 1020.1
06 9.09 З 2 15 км ясно +19.1 +16.7 86 +21 +26 комфорт 1025.1 1019.8 +12.4
09 9.09 нст 1 20 км 1/1 600 м
[Cu hum]
+24.8 +10.4 40 +26 +43 жарко 1023.1 1017.9
12 9.09 В 5 20 км 1/1 600 м
[Cu hum]
+25.3 +10.6 40 +26 +32 жарко 1020.5 1015.4
15 9.09 В 4 20 км 1/1 600 м
[Sc diur, vesp]
+23.3 +12.9 52 +26 +27 жарко 1019.7 1014.5
18 9.09 В 2 20 км ясно +18.6 +11.4 63 +20 +20 1020.2 1015.0 +26.4
21 9.09 ЮЗ 2 20 км ясно +19.6 +11.9 61 +22 +22 комфорт 1019.6 1014.4
00 10.09 Ю 3 20 км ясно +14.8 +12.0 83 +14 +14 1018.7 1013.4
03 10.09 Ю 3 20 км ясно +14.3 +12.0 86 +14 +14 1018.3 1013.0
06 10.09 ЮЗ 4 20 км 1/1 600 м
[Sc]
+20.0 +11.3 57 +22 +24 комфорт 1018.6 1013.4 +14.3
09 10.09 ЮЗ 2 20 км 1/1 600 м
[Sc]
+27.5 +13.1 41 +29 +45 жарко 1017.6 1012.5
12 10.09 В 6 20 км 1/1 600 м
[Cu hum]
+27.8 +15.9 48 +31 +35 душно 1014.8 1009.7
15 10.09 В 5 20 км 1/1 600 м
[Cu hum]
+25.1 +17.6 63 +29 +29 душно 1014.4 1009.3
18 10.09 В 3 20 км ясно +21.3 +17.4 78 +25 +25 комфорт 1015.5 1010.3 +30.0
21 10.09 Ю 2 20 км 4/4 600 м
[Cu med, cong]
+19.4 +17.1 87 +22 +22 комфорт 1015.8 1010.6
00 11.09 Ю 2 20 км 4/4 600 м
[Cu med, cong]
+18.8 +16.6 87 +20 +20 1015.4 1010.2
03 11.09 ЮЗ 2 20 км 3/3 600 м
[Sc]
+16.6 +15.0 90 +17 +17 1014.5 1009.2
06 11.09 штиль 0 20 км ясно +23.1 +21.4 90 +31 +37 очень
душно
1015.8 1010.7 +16.2
09 11.09 СЗ 3 20 км 1/1 600 м
[Cu hum]
+29.3 +15.4 43 +32 +45 душно 1014.8 1009.8
15 11.09 В 6 20 км ясно +25.0 +18.1 66 +29 +30 душно 1012.1 1007.0
21 11.09 СВ 2 20 км 1/1 600 м
[Cu hum]
+19.9 +18.3 90 +24 +24 комфорт 1014.9 1009.7
06 12.09 С 3 20 км ясно +22.7 +20.8 89 +30 +34 очень
душно
1015.9 1010.7 +16.5
09 12.09 В 5 20 км ясно +27.9 +18.7 57 +33 +42 очень
душно
1014.8 1009.7
12 12.09 В 6 8000 м мгла ясно +29.6 +18.8 52 +35 +40 очень
душно
1011.1 1006.1
15 12.09 В 9 7000 м мгла ясно +25.8 +20.2 71 +32 +32 очень
душно
1009.9 1004.8
18 12.09 СВ 8 20 км ясно +23.1 +20.7 86 +30 +30 очень
душно
1011.5 1012.0 +31.0
21 12.09 нст 1 20 км ясно +20.7 +18.1 85 +26 +26 душно 1012.3 1007.1
00 13.09 нст 1 20 км ясно +18.5 +16.7 89 +21 +21 комфорт 1011.7 1006.5
03 13.09 С 4 20 км ясно +18.7 +16.4 86 +20 +20 1011.5 1006.3
06 13.09 ЮВ 5 20 км ясно +28.1 +18.3 55 +33 +35 очень
душно
1014.1 1009.1 +17.7
09 13.09 ЮВ 5 20 км ясно +28.1 +18.3 55 +33 +41 очень
душно
1014.1 1009.1
12 13.09 В 6 20 км 4/0
[Ci fib]
+27.9 +19.1 59 +33 +38 очень
душно
1012.2 1007.2
15 13.09 ЮВ 5 20 км 4/0
[Ci sp]
+24.6 +18.3 68 +29 +29 душно 1012.9 1007.8
18 13.09 ЮВ 6 20 км 8/8 300 м
[Sc]
+22.7 +17.8 74 +28 +28 душно 1016.2 1011.0 +28.9
21 13.09 Ю 5 20 км 6/6 600 м
[Cu med, cong]
+21.9 +17.7 77 +26 +26 душно 1017.7 1012.5
03 14.09 Ю 5 20 км 8/8 600 м
[Cu med, cong]
+20.7 +16.9 79 +24 +24 комфорт 1019.1 1013.9
06 14.09 Ю 7 20 км 9/9 600 м
[Cu med, cong]
+19.9 +16.2 79 +22 +22 комфорт 1021.7 1016.5 +18.9
18 14.09 Ю 4 20 км 10/10 600 м
[Cu med, cong]
+20.3 +17.7 85 +24 +24 комфорт 1021.3 1016.1 +23.2
00 15.09 Ю 3 20 км {дождь, морось} 10/10 300 м
[Cu med, cong]
+18.8 +17.3 91 +20 +20 1021.3 1016.1 4

 

Местоположение метеостанции Мапуту (Мозамбик): широта -25.91 долгота 32.57 высота над уровнем моря 44 м.

В архиве по умолчанию представлена погода в Мапуту за последнюю неделю. Архивные данные за месяц целиком и за предыдущие месяцы, начиная с января 2011 года, Вы можете получить, выбрав интересующий диапазон дат из раскрывающегося списка и нажав кнопку "Ввод!".


*Определитесь, кто Вы:
робот инопланетянин человек

Внимание! Время в таблицах - всемирное. Для получения местного времени необходимо прибавить поправку, которая равна 2 ч.

Смотрите также архив погоды в соседних городах и на ближайших метеорологических станциях:

Погода в Чангалане (Мозамбик) (57 км)
Погода в Коматидрааи (Южная Африка) (81 км)
Погода в Ситеки (Свазиленд) (85 км)
Погода в Майиване (Свазиленд) (106 км)
Погода в Биг-Бенде (Свазиленд) (121 км)
Погода на Дамбе Lubovane (Свазиленд) (127 км)
Погода в Ндзевейне (Свазиленд) (132 км)
Погода в Пиггс-Пике (Свазиленд) (132 км)
Погода в Скукузе (Южная Африка) (142 км)
Погода в Шаи-Шаи (Мозамбик) (143 км)

Пояснения к столбцам:

Ветер - указаны скорость ветра в м/с - средняя за 10 мин, порывы в срок и между сроками (в фигурных скобках) и направление, откуда дует ветер: С - северный, СВ - северо-восточный, В - восточный, ЮВ - юго-восточный, Ю - южный, ЮЗ - юго-западный, З - западный, СЗ - северо-западный.
Видимость - горизонтальная дальность видимости в метрах или километрах. При видимости от 1 до 10 км при отсутствии осадков обычно наблюдается дымка, при ухудшении видимости до 1 км и менее - туман. В сухую погоду видимость может ухудшаться дымом, пылью или мглою.
Явления - указаны атмосферные явления, наблюдавшиеся в срок или в последний час перед сроком; фигурными скобками обозначены явления, наблюдавшиеся между сроками (за 1-3 часа до срока); квадратными скобками обозначены град или гололедные отложения с указанием их диаметра в мм.
Облачность - указаны через наклонную черту общая и нижняя облачность в баллах и высота нижней границы облаков в метрах; квадратными скобками обозначены формы облаков: Ci - перистые, Cs - перисто-слоистые, Cc - перисто-кучевые, Ac - высококучевые, As - высокослоистые, Sc - слоисто-кучевые, Ns - слоисто-дождевые, Cu - кучевые, Cb - кучево-дождевые. Подробнее классификацию облаков см. в Атласе облаков (PDF).
T - Температура воздуха - температура, измеренная на высоте 2 м над землей.
Td - Температура точки росы - температура, при понижении до которой содержащийся в воздухе водяной пар достигнет насыщения.
f - Относительная влажность воздуха - влажноcть воздуха, измеренная на высоте 2 м над землей.
Te - Эффективная температура - температура, которую ощущает одетый по сезону человек в тени. Характеристика душности погоды. При расчете учитывается влияние влажности воздуха и скорости ветра на теплоощущения человека.
Tes - Эффективная температура на солнце - температура, которую ощущает человек, с поправкой на солнечный нагрев. Характеристика знойности погоды. Зависит от высоты солнца над горизонтом, облачности и скорости ветра. Ночью, в пасмурную погоду, а также при ветре 12 м/с и более поправка равна нулю.
P - Атмосферное давление - приведенное к уровню моря атмосферное давление.
Po - Атмосферное давление - измеренное на уровне метеостанции атмосферное давление.
Tmin - Минимальная температура - минимум температуры воздуха на высоте 2 м над землей.
Tmax - Максимальная температура - максимум температуры воздуха на высоте 2 м над землей.
R - Количество осадков - Количество выпавших осадков за период времени, мм. При наведении курсора мыши на число - период времени, за который выпало указанное количество осадков.
R24 - Количество осадков - Количество выпавших осадков за 24 часа, мм.
S - Снежный покров - Высота снежного покрова, см. При наведении курсора мыши на число - состояние снежного покрова и степень покрытия местности в баллах.